Location: Winnipauk Village
(41.1295°N, 73.4171°W)
Time: 13:28:40
(UTC+00:00)

X-37B - Pass Details

Date: 10 August 2021
Orbit: 381 x 393 km, 45.0° (Epoch: 29 August)

Event Time Altitude Azimuth Distance (km) Brightness Sun altitude
Exits shadow 07:27:30 33° 35° (NE) 669 2.3 -23.8°
Drops below altitude 10° 07:29:46 10° 73° (ENE) 1,397 4.1 -23.5°
Sets 07:31:55 0° 81° (E) 2,249 5.2 -23.3°
